This is the latest recevied weather packets stored in our database for station/object OK1LPD-5. If no packets are shown the sender has not sent any weather packets the latest 10 day(s).
| Time | Temp. | Humidity | Pressure | Rain* | Wind** | Luminosity | Snow |
|---|---|---|---|---|---|---|---|
| 1777830012 | 22.22° C | 40% | 1004.5 hPa | 0 mm | - | - | - |
| 1777829411 | 22.78° C | 40% | 1004.4 hPa | 0 mm | - | - | - |
| 1777828809 | 23.33° C | 39% | 1004.2 hPa | 0 mm | - | - | - |
| 1777828212 | 23.33° C | 39% | 1004.2 hPa | 0 mm | - | - | - |
| 1777827612 | 24.44° C | 38% | 1004.1 hPa | 0 mm | - | - | - |
| 1777827009 | 24.44° C | 37% | 1004 hPa | 0 mm | - | - | - |
| 1777826411 | 25° C | 35% | 1004 hPa | 0 mm | - | - | - |
| 1777825812 | 25° C | 34% | 1004 hPa | 0 mm | - | - | - |
| 1777825209 | 25.56° C | 34% | 1004 hPa | 0 mm | - | - | - |
| 1777824612 | 25.56° C | 32% | 1004 hPa | 0 mm | - | - | - |
| 1777824010 | 25.56° C | 30% | 1003.9 hPa | 0 mm | - | - | - |
| 1777823408 | 25.56° C | 28% | 1004 hPa | 0 mm | - | - | - |
| 1777822812 | 25.56° C | 28% | 1004 hPa | 0 mm | - | - | - |
| 1777822212 | 26.11° C | 27% | 1004 hPa | 0 mm | - | - | - |
| 1777821609 | 26.11° C | 26% | 1003.9 hPa | 0 mm | - | - | - |
| 1777821011 | 26.11° C | 26% | 1004 hPa | 0 mm | - | - | - |
| 1777820412 | 26.11° C | 26% | 1004 hPa | 0 mm | - | - | - |
| 1777819809 | 26.67° C | 25% | 1004.1 hPa | 0 mm | - | - | - |
| 1777819211 | 26.67° C | 27% | 1004.1 hPa | 0 mm | - | - | - |
| 1777818609 | 27.22° C | 27% | 1004.1 hPa | 0 mm | - | - | - |
| 1777818008 | 27.22° C | 25% | 1004.2 hPa | 0 mm | - | - | - |
| 1777817412 | 27.22° C | 25% | 1004.3 hPa | 0 mm | - | - | - |
| 1777816809 | 27.22° C | 28% | 1004.3 hPa | 0 mm | - | - | - |
| 1777816209 | 27.78° C | 26% | 1004.4 hPa | 0 mm | - | - | - |
| 1777815613 | 28.33° C | 25% | 1004.6 hPa | 0 mm | - | - | - |
* Rain latest hour (hover to see other rain measurements)
** Current wind speed in m/s (hover to see current wind gust speed)